Location: East Irvine
(33.6759°N, 117.7598°W)
Time: 21:53:43
(UTC+00:00)

SMAP - Pass Details

Date: 15 November 2025
Orbit: 681 x 683 km, 98.1° (Epoch: 13 December)

Event Time Altitude Azimuth Distance (km) Brightness Sun altitude
Rises 01:31:23 0° 172° (S) 3,029 6.5 -9.3°
Reaches altitude 10° 01:33:37 10° 174° (S) 2,118 5.7 -9.7°
Maximum altitude 01:38:14 70° 258° (WSW) 727 3.4 -10.7°
Drops below altitude 10° 01:42:53 10° 343° (NNW) 2,131 5.7 -11.6°
Sets 01:45:08 0° 345° (NNW) 3,050 6.4 -12.1°
